Location: Crescent
(42.8242°N, 73.7329°W)
Time: 06:43:42
(UTC+00:00)

Vanguard 3 - Pass Details

Date: 14 November 2024
Orbit: 507 x 3221 km, 33.4° (Epoch: 04 December)

Event Time Altitude Azimuth Distance (km) Brightness Sun altitude
Rises 23:23:41 0° 273° (W) 5,255 12.8 -20.4°
Reaches altitude 10° 23:29:23 10° 255° (WSW) 3,625 11.6 -21.5°
Maximum altitude 23:34:01 15° 223° (SW) 2,695 10.4 -22.3°
Drops below altitude 10° 23:37:38 10° 189° (S) 2,667 9.9 -23.0°
Sets 23:40:51 0° 165° (SSE) 3,251 10.1 -23.6°
